TimeEST,TemperatureF,Dew PointF,Humidity,Sea Level PressureIn,VisibilityMPH,Wind Direction,Wind SpeedMPH,Gust SpeedMPH,PrecipitationIn,Events,Conditions,WindDirDegrees,DateUTC
12:15 AM,39.2,35.6,87,30.13,10.0,West,9.2,-,N/A,,Overcast,280,2013-11-07 05:15:00
12:35 AM,39.2,35.6,87,30.13,10.0,West,6.9,-,N/A,,Overcast,280,2013-11-07 05:35:00
12:55 AM,39.2,35.6,87,30.13,10.0,West,10.4,-,N/A,,Overcast,280,2013-11-07 05:55:00
1:15 AM,39.2,35.6,87,30.14,10.0,West,6.9,-,N/A,,Overcast,280,2013-11-07 06:15:00
1:35 AM,39.2,35.6,87,30.14,10.0,WNW,6.9,-,N/A,,Overcast,290,2013-11-07 06:35:00
1:55 AM,37.4,33.8,87,30.14,10.0,West,5.8,-,N/A,,Mostly Cloudy,280,2013-11-07 06:55:00
2:15 AM,37.4,33.8,87,30.14,10.0,WNW,6.9,-,N/A,,Mostly Cloudy,300,2013-11-07 07:15:00
2:35 AM,35.6,32.0,87,30.14,10.0,WNW,6.9,-,N/A,,Scattered Clouds,300,2013-11-07 07:35:00
2:55 AM,35.6,32.0,87,30.14,10.0,WNW,6.9,-,N/A,,Clear,300,2013-11-07 07:55:00
3:15 AM,33.8,32.0,93,30.16,10.0,WNW,6.9,-,N/A,,Clear,300,2013-11-07 08:15:00
3:35 AM,33.8,32.0,93,30.16,10.0,WNW,8.1,-,N/A,,Clear,300,2013-11-07 08:35:00
3:55 AM,33.8,30.2,87,30.17,10.0,WNW,6.9,-,N/A,,Clear,300,2013-11-07 08:55:00
4:15 AM,33.8,30.2,87,30.18,10.0,WNW,5.8,-,N/A,,Clear,300,2013-11-07 09:15:00
4:35 AM,32.0,30.2,93,30.18,10.0,WNW,5.8,-,N/A,,Clear,290,2013-11-07 09:35:00
4:55 AM,32.0,30.2,93,30.19,10.0,West,6.9,-,N/A,,Clear,280,2013-11-07 09:55:00
5:15 AM,32.0,30.2,93,30.20,10.0,West,6.9,-,N/A,,Clear,280,2013-11-07 10:15:00
5:35 AM,32.0,28.4,87,30.21,10.0,West,5.8,-,N/A,,Clear,280,2013-11-07 10:35:00
5:55 AM,32.0,28.4,87,30.22,10.0,West,5.8,-,N/A,,Clear,280,2013-11-07 10:55:00
6:15 AM,32.0,28.4,87,30.22,10.0,West,5.8,-,N/A,,Clear,280,2013-11-07 11:15:00
6:35 AM,32.0,28.4,87,30.22,10.0,West,4.6,-,N/A,,Clear,280,2013-11-07 11:35:00
6:55 AM,30.2,26.6,86,30.23,10.0,West,4.6,-,N/A,,Clear,280,2013-11-07 11:55:00
7:15 AM,28.4,26.6,93,30.23,10.0,West,5.8,-,N/A,,Clear,260,2013-11-07 12:15:00
7:35 AM,28.4,26.6,93,30.23,10.0,West,5.8,-,N/A,,Clear,270,2013-11-07 12:35:00
7:55 AM,30.2,28.4,93,30.24,10.0,West,4.6,-,N/A,,Clear,270,2013-11-07 12:55:00
8:15 AM,32.0,28.4,87,30.25,10.0,West,4.6,-,N/A,,Clear,270,2013-11-07 13:15:00
8:35 AM,32.0,30.2,93,30.26,10.0,West,5.8,-,N/A,,Clear,260,2013-11-07 13:35:00
8:55 AM,33.8,30.2,87,30.26,10.0,West,5.8,-,N/A,,Clear,280,2013-11-07 13:55:00
9:15 AM,33.8,30.2,87,30.26,10.0,West,8.1,-,N/A,,Clear,270,2013-11-07 14:15:00
9:35 AM,35.6,30.2,81,30.26,10.0,WSW,9.2,-,N/A,,Clear,250,2013-11-07 14:35:00
9:55 AM,35.6,30.2,81,30.27,10.0,WSW,8.1,-,N/A,,Clear,250,2013-11-07 14:55:00
10:15 AM,37.4,32.0,81,30.28,10.0,WSW,11.5,-,N/A,,Clear,250,2013-11-07 15:15:00
10:35 AM,39.2,32.0,75,30.27,10.0,WSW,10.4,-,N/A,,Clear,250,2013-11-07 15:35:00
10:55 AM,41.0,30.2,65,30.27,10.0,West,6.9,-,N/A,,Clear,270,2013-11-07 15:55:00
11:15 AM,41.0,30.2,65,30.27,10.0,West,8.1,-,N/A,,Clear,270,2013-11-07 16:15:00
11:35 AM,42.8,30.2,61,30.26,10.0,WSW,11.5,16.1,N/A,,Clear,240,2013-11-07 16:35:00
11:55 AM,42.8,30.2,61,30.26,10.0,West,10.4,-,N/A,,Clear,270,2013-11-07 16:55:00
12:15 PM,44.6,30.2,57,30.25,10.0,WSW,12.7,18.4,N/A,,Clear,250,2013-11-07 17:15:00
12:35 PM,44.6,26.6,49,30.24,10.0,West,15.0,24.2,N/A,,Clear,270,2013-11-07 17:35:00
12:55 PM,44.6,28.4,53,30.23,10.0,West,15.0,-,N/A,,Clear,270,2013-11-07 17:55:00
1:15 PM,44.6,26.6,49,30.22,10.0,West,12.7,23.0,N/A,,Clear,270,2013-11-07 18:15:00
1:35 PM,44.6,26.6,49,30.21,10.0,West,11.5,23.0,N/A,,Clear,280,2013-11-07 18:35:00
1:55 PM,46.4,28.4,50,30.21,10.0,West,11.5,25.3,N/A,,Clear,270,2013-11-07 18:55:00
2:15 PM,46.4,30.2,53,30.21,10.0,West,18.4,23.0,N/A,,Clear,260,2013-11-07 19:15:00
2:35 PM,44.6,30.2,57,30.20,10.0,West,11.5,21.9,N/A,,Clear,270,2013-11-07 19:35:00
2:55 PM,42.8,28.4,57,30.20,10.0,West,12.7,-,N/A,,Scattered Clouds,270,2013-11-07 19:55:00
3:15 PM,42.8,30.2,61,30.20,10.0,West,10.4,20.7,N/A,,Mostly Cloudy,270,2013-11-07 20:15:00
3:35 PM,42.8,32.0,66,30.19,10.0,West,11.5,17.3,N/A,,Overcast,270,2013-11-07 20:35:00
3:55 PM,42.8,30.2,61,30.19,10.0,West,13.8,24.2,N/A,,Overcast,260,2013-11-07 20:55:00
4:15 PM,42.8,30.2,61,30.19,10.0,WSW,18.4,26.5,N/A,,Overcast,250,2013-11-07 21:15:00
4:35 PM,42.8,32.0,66,30.19,10.0,WSW,18.4,-,N/A,,Overcast,250,2013-11-07 21:35:00
4:55 PM,41.0,32.0,70,30.19,10.0,West,12.7,17.3,N/A,,Overcast,260,2013-11-07 21:55:00
5:35 PM,41.0,32.0,70,30.19,10.0,WSW,10.4,-,N/A,,Overcast,250,2013-11-07 22:35:00
5:55 PM,41.0,32.0,70,30.19,10.0,WSW,10.4,-,N/A,,Overcast,240,2013-11-07 22:55:00
6:15 PM,41.0,32.0,70,30.19,10.0,WSW,6.9,-,N/A,,Overcast,240,2013-11-07 23:15:00
6:35 PM,39.2,32.0,75,30.19,10.0,SW,5.8,-,N/A,,Overcast,230,2013-11-07 23:35:00
6:55 PM,41.0,32.0,70,30.19,10.0,SW,5.8,-,N/A,,Overcast,230,2013-11-07 23:55:00
7:15 PM,39.2,33.8,81,30.19,10.0,SW,4.6,-,N/A,,Overcast,230,2013-11-08 00:15:00
7:35 PM,37.4,32.0,81,30.19,10.0,West,8.1,-,N/A,,Overcast,260,2013-11-08 00:35:00
7:55 PM,39.2,32.0,75,30.20,10.0,West,12.7,19.6,N/A,,Overcast,280,2013-11-08 00:55:00
8:15 PM,39.2,32.0,75,30.20,10.0,NW,10.4,20.7,N/A,,Overcast,310,2013-11-08 01:15:00
8:35 PM,39.2,32.0,75,30.20,10.0,WNW,10.4,16.1,N/A,,Overcast,290,2013-11-08 01:35:00
8:55 PM,37.4,32.0,81,30.21,10.0,NW,12.7,18.4,N/A,,Overcast,310,2013-11-08 01:55:00
9:15 PM,37.4,32.0,81,30.22,10.0,WNW,10.4,16.1,N/A,,Overcast,300,2013-11-08 02:15:00
9:35 PM,37.4,30.2,75,30.22,10.0,WNW,8.1,-,N/A,,Overcast,290,2013-11-08 02:35:00
9:55 PM,35.6,30.2,81,30.23,10.0,WNW,5.8,-,N/A,,Scattered Clouds,290,2013-11-08 02:55:00
10:15 PM,33.8,30.2,87,30.24,10.0,WNW,10.4,16.1,N/A,,Clear,290,2013-11-08 03:15:00
10:35 PM,33.8,30.2,87,30.25,10.0,WNW,12.7,18.4,N/A,,Clear,300,2013-11-08 03:35:00
10:55 PM,32.0,30.2,93,30.26,10.0,WNW,8.1,-,N/A,,Clear,290,2013-11-08 03:55:00
11:15 PM,32.0,30.2,93,30.25,10.0,WNW,6.9,-,N/A,,Clear,290,2013-11-08 04:15:00
11:35 PM,32.0,30.2,93,30.25,10.0,WNW,6.9,-,N/A,,Clear,290,2013-11-08 04:35:00
11:55 PM,30.2,28.4,93,30.26,10.0,West,6.9,-,N/A,,Clear,260,2013-11-08 04:55:00